Location: Alexandria
(38.8050°N, 77.0470°W)
Time: 16:34:14
(UTC-05:00)

ISS - Pass Details

Date: 14 November 2017
Orbit: 402 x 407 km, 51.6° (Epoch: 19 November)

Event Time Altitude Azimuth Distance (km) Brightness Sun altitude
Exits shadow 05:56:05 12° 322° (NW) 1,367 -1.6 -10.7°
Maximum altitude 05:58:59 41° 33° (NNE) 594 -2.9 -10.2°
Drops below altitude 10° 06:02:04 10° 106° (ESE) 1,448 0.7 -9.6°
Sets 06:04:13 0° 114° (ESE) 2,305 2.2 -9.2°
